Airport Information

KMFR - Rogue Valley Intl Medford Airport

KMFR 202253Z 23010KT 10SM SCT042 BKN050 OVC110 12/03 A3005 RMK AO2 SLP179 T01170033


  • General Information

  • Coordinates: N 42°22'27"/ W 122°52'24"
  • Location: N/A
  • Surveyed Elevation: 1335 MSL

Operations

Flow Name Active Runways Conditions

Green background denotes normal operations.


Common Frequencies

Callsign Frequency Position Name

More at the Document Center


Charts

Under Construction